CW2157 Weather Reports


time (UTC)temp
C
wind
direction
speed
KPH
gust
KPH
rain 1hr
cm
rain 24hr
cm
rain mn
cm
humidity
%
barometer
mb
20260507075205 13 344 8.0 19.3 0.00 0.51 0.38 88 1008.6
20260507074704 13 358 6.4 19.3 0.00 0.51 0.38 88 1008.8
20260507074204 13 3 4.8 22.5 0.00 0.51 0.38 88 1009.0
20260507073704 13 349 11.3 19.3 0.00 0.51 0.38 88 1008.9
20260507073205 13 357 6.4 19.3 0.00 0.51 0.38 89 1008.6
20260507072705 13 14 9.7 20.9 0.00 0.51 0.38 89 1008.2
20260507072204 13 344 9.7 20.9 0.00 0.51 0.38 89 1008.3
20260507071705 13 352 4.8 16.1 0.00 0.51 0.38 89 1008.3
20260507071205 13 17 6.4 19.3 0.03 0.51 0.38 89 1008.4
20260507070704 13 11 6.4 19.3 0.03 0.51 0.38 89 1008.6
20260507065704 14 358 6.4 16.1 0.03 0.51 0.38 89 1008.4
20260507065205 14 347 8.0 19.3 0.05 0.51 0.38 89 1008.1
20260507064705 14 358 6.4 19.3 0.10 0.51 0.38 89 1007.6
20260507064205 14 353 11.3 22.5 0.13 0.51 0.38 89 1007.5
20260507063704 15 20 8.0 16.1 0.18 0.51 0.38 89 1007.6
20260507063205 15 8 6.4 14.5 0.28 0.51 0.38 89 1007.6
20260507062704 15 6 6.4 14.5 0.30 0.51 0.38 89 1007.6
20260507062204 15 337 9.7 16.1 0.33 0.51 0.38 88 1007.7
20260507061705 15 3 9.7 19.3 0.38 0.51 0.38 88 1007.7
20260507061205 15 340 4.8 19.3 0.36 0.48 0.36 88 1008.2
20260507060704 15 317 9.7 19.3 0.36 0.48 0.36 87 1008.3
20260507060204 15 327 8.0 14.5 0.36 0.48 0.36 86 1008.1
20260507055205 16 53 9.7 19.3 0.33 0.46 0.33 86 1007.6
20260507054705 16 8 6.4 14.5 0.28 0.41 0.28 86 1007.9
20260507053705 17 343 3.2 4.8 0.20 0.33 0.20 85 1008.6
20260507053204 17 341 3.2 9.7 0.10 0.23 0.10 84 1008.6
20260507051705 17 358 4.8 11.3 0.00 0.13 0.00 79 1008.0
20260507051204 17 342 8.0 24.1 0.00 0.13 0.00 78 1008.4
20260507050704 18 337 4.8 9.7 0.00 0.13 0.00 78 1008.5
20260507050204 18 294 1.6 8.0 0.00 0.13 0.00 78 1008.6
20260507045704 18 305 3.2 8.0 0.00 0.13 0.00 79 1008.5
20260507045204 18 303 4.8 11.3 0.00 0.13 0.00 81 1008.2
20260507044705 18 232 4.8 8.0 0.00 0.13 0.00 82 1008.4
20260507044205 18 330 4.8 12.9 0.00 0.13 0.00 82 1008.1
20260507043705 18 19 8.0 12.9 0.00 0.13 0.00 84 1008.0
20260507042704 18 352 3.2 4.8 0.00 0.13 0.00 86 1008.0
20260507042205 18 277 1.6 4.8 0.00 0.13 0.00 87 1008.0
20260507041705 18 225 3.2 8.0 0.00 0.13 0.00 87 1007.9
20260507041205 18 228 3.2 8.0 0.00 0.13 0.00 87 1007.7
20260507040705 18 235 1.6 4.8 0.00 0.13 0.00 87 1007.7
20260507040205 18 325 8.0 22.5 0.00 0.13 0.00 88 1007.6
20260507035704 18 238 1.6 8.0 0.00 0.13 0.13 88 1007.7
20260507034704 18 203 6.4 8.0 0.00 0.13 0.13 88 1007.5
20260507034204 18 211 4.8 8.0 0.00 0.13 0.13 88 1007.6
20260507033704 18 215 8.0 8.0 0.00 0.13 0.13 88 1007.5
20260507033205 18 216 4.8 8.0 0.00 0.13 0.13 88 1007.4
20260507032704 18 221 8.0 8.0 0.00 0.13 0.13 88 1007.4
20260507032204 18 213 4.8 4.8 0.00 0.13 0.13 88 1007.2
20260507031704 18 219 3.2 4.8 0.00 0.13 0.13 88 1007.2
20260507030205 17 210 4.8 8.0 0.00 0.13 0.13 89 1007.1
20260507025704 17 218 3.2 8.0 0.00 0.13 0.13 89 1007.2
20260507024705 17 195 6.4 11.3 0.00 0.13 0.13 89 1007.0
20260507024205 17 189 8.0 9.7 0.00 0.13 0.13 89 1007.1
20260507023705 17 184 8.0 11.3 0.00 0.13 0.13 89 1007.3
20260507022704 17 204 8.0 11.3 0.00 0.13 0.13 89 1007.5
20260507022205 17 210 6.4 9.7 0.00 0.13 0.13 89 1007.5
20260507021705 17 188 3.2 4.8 0.00 0.13 0.13 89 1007.5
20260507021204 17 204 3.2 4.8 0.00 0.13 0.13 89 1007.4
20260507020705 17 178 3.2 4.8 0.00 0.13 0.13 89 1007.4
20260507020204 17 169 0.0 1.6 0.00 0.13 0.13 89 1007.5
20260507015705 17 169 3.2 4.8 0.00 0.13 0.13 89 1007.5
20260507015204 17 239 1.6 3.2 0.00 0.13 0.13 88 1007.6
20260507014704 17 239 0.0 1.6 0.00 0.13 0.13 88 1007.7
20260507013704 17 239 0.0 0.0 0.00 0.13 0.13 88 1007.8
20260507013204 17 239 1.6 4.8 0.00 0.13 0.13 87 1008.0
20260507012705 17 233 4.8 8.0 0.00 0.13 0.13 87 1008.1
20260507012205 17 231 3.2 4.8 0.00 0.13 0.13 87 1008.1
20260507011704 17 227 1.6 4.8 0.00 0.13 0.13 86 1008.0
20260507010204 17 233 4.8 8.0 0.00 0.13 0.13 85 1007.5
20260507005704 18 226 3.2 4.8 0.00 0.13 0.13 85 1007.7
20260507005205 18 202 1.6 4.8 0.00 0.13 0.13 84 1007.3
20260507004704 18 194 1.6 4.8 0.00 0.13 0.13 82 1007.4
20260507004205 18 158 3.2 3.2 0.00 0.13 0.13 83 1007.4
20260507003704 18 242 0.0 0.0 0.00 0.13 0.13 83 1007.4
20260507003204 18 242 0.0 1.6 0.00 0.13 0.13 83 1007.4
20260507002704 18 242 3.2 4.8 0.00 0.13 0.13 83 1007.3
20260507002204 18 219 6.4 11.3 0.00 0.13 0.13 82 1007.2
20260507001205 19 222 8.0 8.0 0.00 0.13 0.13 81 1007.1
20260507000705 19 226 8.0 9.7 0.00 0.13 0.13 81 1007.2
20260507000205 19 230 9.7 11.3 0.00 0.13 0.13 80 1007.2
20260506235704 19 229 8.0 11.3 0.00 0.13 0.13 80 1007.2
20260506234705 20 215 9.7 12.9 0.00 0.13 0.13 79 1007.0
20260506234204 20 208 9.7 12.9 0.00 0.13 0.13 78 1006.9
20260506233704 20 213 9.7 11.3 0.00 0.13 0.13 78 1007.0
20260506233204 20 221 8.0 11.3 0.00 0.13 0.13 78 1007.0
20260506232705 20 210 9.7 9.7 0.00 0.13 0.13 78 1007.0
20260506232204 20 211 8.0 12.9 0.00 0.13 0.13 78 1007.0
20260506231704 20 193 8.0 11.3 0.00 0.13 0.13 78 1007.0
20260506231204 20 199 9.7 14.5 0.00 0.13 0.13 78 1006.9
20260506230704 20 194 8.0 11.3 0.00 0.13 0.13 77 1006.9
20260506230204 20 197 8.0 14.5 0.00 0.13 0.13 78 1006.9
20260506225204 20 186 9.7 11.3 0.00 0.13 0.13 77 1006.9
20260506224704 20 214 9.7 16.1 0.00 0.13 0.13 77 1007.0
20260506224204 20 216 9.7 12.9 0.00 0.13 0.13 77 1007.1
20260506223704 20 214 11.3 14.5 0.00 0.13 0.13 78 1006.9
20260506223205 20 216 11.3 19.3 0.00 0.13 0.13 78 1007.0
20260506222705 20 217 12.9 19.3 0.00 0.13 0.13 77 1007.0
20260506222204 20 217 14.5 19.3 0.00 0.13 0.13 77 1006.9
20260506221705 20 216 16.1 19.3 0.00 0.13 0.13 76 1006.9
20260506221204 20 218 16.1 29.0 0.00 0.13 0.13 76 1007.0
20260506220704 20 225 16.1 24.1 0.00 0.13 0.13 76 1007.0
20260506220204 21 219 16.1 22.5 0.00 0.13 0.13 77 1007.0
20260506215704 21 216 16.1 22.5 0.00 0.13 0.13 77 1007.0
20260506215205 21 218 17.7 27.4 0.00 0.13 0.13 77 1006.9
20260506214705 21 218 19.3 29.0 0.00 0.13 0.13 77 1007.0
20260506214204 21 222 22.5 32.2 0.00 0.13 0.13 75 1007.0
20260506213704 21 229 20.9 27.4 0.00 0.13 0.13 76 1006.9
20260506213205 21 224 22.5 32.2 0.00 0.13 0.13 77 1006.7
20260506212705 21 218 24.1 29.0 0.00 0.13 0.13 77 1006.7
20260506212204 21 212 22.5 29.0 0.00 0.13 0.13 76 1006.6
20260506211704 21 216 25.7 35.4 0.00 0.13 0.13 75 1006.7
20260506210704 21 219 22.5 32.2 0.00 0.13 0.13 76 1006.6
20260506210204 21 220 24.1 33.8 0.00 0.13 0.13 76 1006.6
20260506205704 21 222 24.1 32.2 0.00 0.13 0.13 77 1006.5
20260506205204 20 225 22.5 32.2 0.00 0.13 0.13 77 1006.5
20260506204704 20 218 22.5 32.2 0.00 0.13 0.13 76 1006.6
20260506204204 20 215 22.5 32.2 0.00 0.13 0.13 77 1006.5
20260506203204 20 219 24.1 32.2 0.00 0.13 0.13 78 1006.6
20260506202704 20 221 24.1 32.2 0.00 0.13 0.13 78 1006.6
20260506202204 20 216 27.4 35.4 0.00 0.13 0.13 77 1006.3
20260506201704 20 219 25.7 37.0 0.00 0.13 0.13 77 1006.4
20260506201204 20 211 27.4 35.4 0.00 0.13 0.13 77 1006.3
20260506200704 20 214 22.5 35.4 0.00 0.13 0.13 78 1006.5
20260506200204 20 207 27.4 35.4 0.00 0.13 0.13 77 1006.5
20260506195704 20 210 25.7 33.8 0.00 0.13 0.13 77 1006.6
20260506195204 20 224 25.7 32.2 0.00 0.13 0.13 77 1006.8
20260506194704 20 216 22.5 32.2 0.00 0.13 0.13 77 1006.9
20260506194204 20 215 25.7 35.4 0.00 0.13 0.13 77 1007.0
20260506193704 20 206 20.9 35.4 0.00 0.13 0.13 76 1007.0
20260506193204 20 211 24.1 32.2 0.00 0.13 0.13 77 1007.0
20260506192704 20 207 25.7 37.0 0.00 0.13 0.13 76 1006.9
20260506191704 20 203 25.7 32.2 0.00 0.13 0.13 77 1007.0
20260506191204 20 203 24.1 35.4 0.00 0.13 0.13 76 1007.2
20260506185704 20 201 20.9 29.0 0.00 0.13 0.13 77 1007.0
20260506185204 20 211 22.5 32.2 0.00 0.13 0.13 77 1007.2
20260506184704 20 208 22.5 33.8 0.00 0.13 0.13 77 1007.2
20260506184204 20 206 20.9 32.2 0.00 0.13 0.13 77 1007.3
20260506183704 20 208 25.7 37.0 0.00 0.13 0.13 77 1007.3
20260506183204 20 208 22.5 33.8 0.00 0.13 0.13 76 1007.6
20260506182704 20 203 25.7 41.8 0.00 0.13 0.13 76 1007.8
20260506182204 20 204 27.4 41.8 0.00 0.13 0.13 77 1007.9
20260506181704 20 213 29.0 38.6 0.00 0.13 0.13 78 1008.0
20260506181204 20 213 30.6 37.0 0.00 0.13 0.13 77 1007.9
20260506180704 20 211 32.2 41.8 0.00 0.13 0.13 80 1008.1
20260506180204 20 204 32.2 45.1 0.00 0.13 0.13 80 1008.0
20260506175704 20 202 27.4 33.8 0.00 0.13 0.13 79 1007.9
20260506175205 20 213 25.7 35.4 0.00 0.13 0.13 79 1008.2
20260506174704 20 208 32.2 41.8 0.00 0.13 0.13 80 1008.3
20260506174205 19 210 27.4 40.2 0.00 0.13 0.13 79 1008.2
20260506173704 19 211 29.0 45.1 0.00 0.13 0.13 80 1008.3
20260506173204 19 204 27.4 40.2 0.00 0.13 0.13 80 1008.3
20260506172704 19 207 25.7 40.2 0.00 0.13 0.13 80 1008.3
20260506171704 19 209 32.2 41.8 0.00 0.13 0.13 81 1008.1
20260506170704 18 206 27.4 40.2 0.03 0.13 0.13 82 1008.3
20260506170204 18 203 27.4 40.2 0.05 0.13 0.13 81 1008.4
20260506165704 18 200 32.2 41.8 0.05 0.13 0.13 80 1008.4
20260506165204 18 203 29.0 48.3 0.05 0.13 0.13 81 1008.2
20260506164705 18 205 32.2 45.1 0.05 0.13 0.13 82 1008.2
20260506164204 18 208 30.6 41.8 0.05 0.13 0.13 81 1008.3
20260506163704 18 204 25.7 40.2 0.05 0.13 0.13 83 1008.5
20260506163204 18 211 29.0 40.2 0.05 0.13 0.13 85 1008.5
20260506162704 18 213 25.7 37.0 0.05 0.13 0.13 85 1008.5
20260506162204 17 199 24.1 35.4 0.05 0.13 0.13 84 1008.5
20260506161704 17 204 25.7 37.0 0.05 0.13 0.13 84 1008.6
20260506161204 17 207 25.7 46.7 0.08 0.13 0.13 83 1008.7
20260506160704 18 194 25.7 38.6 0.05 0.10 0.10 83 1008.7
20260506160204 18 206 30.6 48.3 0.03 0.08 0.08 82 1008.7
20260506155704 18 196 20.9 32.2 0.05 0.08 0.08 83 1008.7
20260506155204 18 318 19.3 33.8 0.05 0.08 0.08 84 1008.9
20260506154704 17 205 24.1 37.0 0.08 0.08 0.08 83 1009.2
20260506154204 17 325 19.3 27.4 0.08 0.08 0.08 82 1009.2
20260506153204 17 206 19.3 32.2 0.08 0.08 0.08 82 1009.5
20260506152704 17 253 20.9 29.0 0.08 0.08 0.08 81 1009.6
20260506151704 18 216 17.7 32.2 0.08 0.08 0.08 81 1009.5
20260506151204 18 244 19.3 25.7 0.05 0.05 0.05 80 1009.5
20260506150704 18 208 19.3 33.8 0.05 0.05 0.05 80 1009.6
20260506150204 18 215 20.9 29.0 0.05 0.05 0.05 79 1009.6
20260506145204 18 325 22.5 29.0 0.03 0.03 0.03 78 1009.7
20260506144704 18 234 20.9 25.7 0.00 0.00 0.00 78 1009.6
20260506144205 18 218 19.3 32.2 0.00 0.00 0.00 77 1009.5
20260506143704 18 6 20.9 27.4 0.00 0.00 0.00 77 1009.6
20260506143204 19 332 20.9 27.4 0.00 0.00 0.00 77 1009.6
20260506142704 19 220 19.3 29.0 0.00 0.00 0.00 75 1009.7
20260506142204 19 271 22.5 33.8 0.00 0.00 0.00 74 1009.6
20260506141704 19 233 19.3 27.4 0.00 0.00 0.00 72 1009.5
20260506140704 19 225 20.9 27.4 0.00 0.00 0.00 71 1009.6
20260506140204 19 257 22.5 33.8 0.00 0.00 0.00 71 1009.6
20260506135704 19 228 24.1 32.2 0.00 0.00 0.00 71 1009.6
20260506134704 19 261 20.9 29.0 0.00 0.00 0.00 71 1009.5
20260506133704 19 303 20.9 33.8 0.00 0.00 0.00 72 1009.5
20260506133204 19 207 25.7 40.2 0.00 0.00 0.00 72 1009.5
20260506132704 19 223 20.9 32.2 0.00 0.00 0.00 72 1009.4
20260506132204 19 184 20.9 33.8 0.00 0.00 0.00 71 1009.4
20260506131704 19 208 20.9 33.8 0.00 0.00 0.00 71 1009.5
20260506131204 19 211 20.9 37.0 0.00 0.00 0.00 71 1009.6
20260506130704 19 195 20.9 32.2 0.00 0.00 0.00 71 1009.5
20260506130203 18 207 20.9 29.0 0.00 0.00 0.00 71 1009.5
20260506125703 18 326 20.9 33.8 0.00 0.00 0.00 72 1009.5
20260506125204 18 261 19.3 41.8 0.00 0.00 0.00 72 1009.5
20260506124704 18 233 17.7 27.4 0.00 0.00 0.00 72 1009.5
20260506124203 18 242 22.5 32.2 0.00 0.00 0.00 71 1009.5
20260506123204 18 212 22.5 32.2 0.00 0.00 0.00 71 1009.6
20260506122704 18 195 22.5 32.2 0.00 0.00 0.00 72 1009.7
20260506122204 18 210 25.7 33.8 0.00 0.00 0.00 71 1009.7
20260506121704 18 204 22.5 33.8 0.00 0.00 0.00 72 1009.7
20260506121204 18 217 20.9 37.0 0.00 0.00 0.00 71 1009.8
20260506120704 18 8 20.9 37.0 0.00 0.00 0.00 71 1009.7
20260506120204 18 171 22.5 37.0 0.00 0.00 0.00 71 1009.7
20260506115704 18 236 22.5 38.6 0.00 0.00 0.00 72 1009.8
20260506115203 18 223 22.5 38.6 0.00 0.00 0.00 71 1009.8
20260506114703 19 3 25.7 37.0 0.00 0.00 0.00 71 1009.6
20260506114204 19 235 22.5 35.4 0.00 0.00 0.00 71 1009.6
20260506113703 18 353 19.3 35.4 0.00 0.00 0.00 71 1009.6
20260506113204 18 174 22.5 35.4 0.00 0.00 0.00 72 1009.4
20260506112704 18 3 20.9 37.0 0.00 0.00 0.00 72 1009.4
20260506112203 18 186 19.3 33.8 0.00 0.00 0.00 73 1009.5
20260506111704 18 159 22.5 32.2 0.00 0.00 0.00 74 1009.5
20260506111204 18 14 20.9 33.8 0.00 0.00 0.00 75 1009.4
20260506110704 18 198 22.5 32.2 0.00 0.00 0.00 74 1009.4
20260506110204 18 217 19.3 24.1 0.00 0.00 0.00 75 1009.3
20260506105704 18 212 19.3 27.4 0.00 0.00 0.00 75 1009.3
20260506105204 18 176 19.3 27.4 0.00 0.00 0.00 74 1009.3
20260506104204 18 343 19.3 29.0 0.00 0.00 0.00 75 1009.2
20260506103204 18 216 22.5 35.4 0.00 0.00 0.00 76 1009.4
20260506102704 18 251 20.9 33.8 0.00 0.00 0.00 76 1009.3
20260506102203 17 186 19.3 32.2 0.00 0.00 0.00 76 1009.1
20260506101704 17 173 19.3 29.0 0.00 0.00 0.00 76 1009.1
20260506101204 17 185 20.9 32.2 0.00 0.00 0.00 76 1009.2
20260506100204 18 180 22.5 41.8 0.00 0.00 0.00 76 1009.4
20260506095706 18 196 22.5 35.4 0.00 0.00 0.00 76 1009.4
20260506095205 18 216 20.9 32.2 0.00 0.00 0.00 76 1009.4
20260506094205 18 199 22.5 33.8 0.00 0.00 0.00 76 1009.3
20260506093705 18 191 24.1 41.8 0.00 0.00 0.00 76 1009.5
20260506093206 18 192 22.5 35.4 0.00 0.00 0.00 76 1009.3
20260506092706 18 212 22.5 35.4 0.00 0.00 0.00 76 1009.3
20260506092205 18 200 24.1 37.0 0.00 0.00 0.00 76 1009.3
20260506091705 18 221 22.5 35.4 0.00 0.00 0.00 76 1009.4
20260506091205 18 195 22.5 35.4 0.00 0.00 0.00 76 1009.4
20260506090705 18 190 20.9 35.4 0.00 0.00 0.00 76 1009.3
20260506090205 18 201 22.5 38.6 0.00 0.00 0.00 76 1009.3
20260506085706 18 346 22.5 37.0 0.00 0.00 0.00 76 1009.3
20260506085206 18 212 19.3 29.0 0.00 0.00 0.00 76 1009.3
20260506084705 18 194 20.9 32.2 0.00 0.00 0.00 75 1009.4
20260506083706 18 201 22.5 33.8 0.00 0.00 0.00 75 1009.3
20260506083206 18 203 20.9 33.8 0.00 0.00 0.00 76 1009.3
20260506082706 18 186 22.5 32.2 0.00 0.00 0.00 75 1009.3
20260506081705 18 254 24.1 37.0 0.00 0.00 0.00 76 1009.2
20260506081205 18 201 20.9 37.0 0.00 0.00 0.00 75 1009.2
20260506080706 18 207 20.9 32.2 0.00 0.00 0.00 75 1009.3